GW4081 Weather Reports


Display with metric or nautical units.
time (UTC)temp
F
wind
direction
speed
MPH
gust
MPH
rain 1hr
in
rain 24hr
in
rain mn
in
humidity
%
barometer
mb
20260904144104 83 173 11.0 21.0 0.00 0.00 0.00 73 1014.0
20260904143604 83 168 13.0 21.0 0.00 0.00 0.00 73 1014.0
20260904143103 82 177 12.0 22.0 0.00 0.00 0.00 74 1014.0
20260904142604 82 172 12.0 22.0 0.00 0.00 0.00 74 1014.1
20260904142104 81 169 12.0 20.0 0.00 0.00 0.00 75 1014.1
20260904141104 81 171 14.0 23.0 0.00 0.00 0.00 76 1014.0
20260904140604 80 159 12.0 21.0 0.00 0.00 0.00 76 1014.1
20260904140104 80 192 13.0 21.0 0.00 0.00 0.00 77 1014.1
20260904135604 80 178 12.0 21.0 0.00 0.00 0.00 77 1014.1
20260904135104 80 160 13.0 21.0 0.00 0.00 0.00 77 1014.1
20260904134604 80 181 11.0 16.0 0.00 0.00 0.00 77 1014.2
20260904134104 80 175 11.0 18.0 0.00 0.00 0.00 77 1014.2
20260904133104 79 160 11.0 20.0 0.00 0.00 0.00 78 1014.2
20260904132103 79 166 10.0 20.0 0.00 0.00 0.00 79 1014.2
20260904131104 78 159 10.0 18.0 0.00 0.00 0.00 79 1014.1
20260904125103 78 159 9.0 13.0 0.00 0.00 0.00 80 1013.9
20260904124604 77 174 10.0 13.0 0.00 0.00 0.00 80 1013.9
20260904124104 77 166 8.0 13.0 0.00 0.00 0.00 80 1013.8
20260904123604 77 160 9.0 13.0 0.00 0.00 0.00 80 1013.8
20260904122104 77 168 7.0 12.0 0.00 0.00 0.00 80 1013.6
20260904121104 77 155 8.0 12.0 0.00 0.00 0.00 80 1013.5
20260904120603 77 168 7.0 14.0 0.00 0.00 0.00 80 1013.6
20260904120104 77 181 6.0 14.0 0.00 0.00 0.00 80 1013.6
20260904115603 77 175 7.0 12.0 0.00 0.00 0.00 80 1013.6
20260904115104 77 174 7.0 12.0 0.00 0.00 0.00 79 1013.6
20260904114104 77 160 8.0 16.0 0.00 0.00 0.00 79 1013.3
20260904113604 77 158 9.0 16.0 0.00 0.00 0.00 79 1013.4
20260904113104 77 163 8.0 14.0 0.00 0.00 0.00 79 1013.3
20260904112604 77 161 9.0 14.0 0.00 0.00 0.00 79 1013.4
20260904112104 77 151 10.0 14.0 0.00 0.00 0.00 79 1013.4
20260904111604 77 151 7.0 12.0 0.00 0.00 0.00 79 1013.4
20260904111103 78 157 8.0 12.0 0.00 0.00 0.00 79 1013.5
20260904110604 78 162 9.0 12.0 0.00 0.00 0.00 79 1013.4
20260904110104 78 156 9.0 15.0 0.00 0.00 0.00 79 1013.4
20260904105604 78 151 10.0 15.0 0.00 0.00 0.00 79 1013.4
20260904105104 78 161 9.0 16.0 0.00 0.00 0.00 79 1013.4
20260904104603 78 162 9.0 16.0 0.00 0.00 0.00 78 1013.4
20260904104103 78 154 9.0 13.0 0.00 0.00 0.00 78 1013.3
20260904103603 78 151 8.0 15.0 0.00 0.00 0.00 78 1013.2
20260904103104 78 164 10.0 15.0 0.00 0.00 0.00 78 1013.2
20260904102603 78 165 10.0 15.0 0.00 0.00 0.00 78 1013.2
20260904102103 78 162 9.0 15.0 0.00 0.00 0.00 77 1013.3
20260904101604 78 156 10.0 15.0 0.00 0.00 0.00 77 1013.3
20260904101104 78 154 9.0 14.0 0.00 0.00 0.00 78 1013.3
20260904100104 78 165 7.0 14.0 0.00 0.00 0.00 78 1013.3
20260904095603 78 170 8.0 14.0 0.00 0.00 0.00 78 1013.3
20260904095104 78 173 7.0 13.0 0.00 0.00 0.00 78 1013.3
20260904094604 78 173 8.0 12.0 0.00 0.00 0.00 78 1013.3
20260904094104 79 179 8.0 16.0 0.00 0.00 0.00 77 1013.4
20260904093104 79 171 8.0 16.0 0.00 0.00 0.00 78 1013.3
20260904092104 79 162 9.0 16.0 0.00 0.00 0.00 78 1013.2
20260904090604 79 165 8.0 14.0 0.00 0.00 0.00 78 1013.1
20260904090104 79 170 9.0 15.0 0.00 0.00 0.00 79 1013.0
20260904085104 79 179 6.0 14.0 0.00 0.00 0.00 79 1013.2
20260904084604 79 176 10.0 14.0 0.00 0.00 0.00 79 1013.2
20260904084104 79 167 8.0 15.0 0.00 0.00 0.00 79 1013.1
20260904083604 79 178 9.0 15.0 0.00 0.00 0.00 79 1013.1
20260904083104 79 169 9.0 15.0 0.00 0.00 0.00 80 1013.1
20260904082604 79 173 8.0 15.0 0.00 0.00 0.00 80 1013.0
20260904082103 79 181 7.0 15.0 0.00 0.00 0.00 80 1013.1
20260904081104 79 178 9.0 14.0 0.00 0.00 0.00 79 1012.9
20260904080604 79 177 8.0 14.0 0.00 0.00 0.00 79 1012.9
20260904080104 79 174 8.0 14.0 0.00 0.00 0.00 80 1012.9
20260904075605 79 174 8.0 16.0 0.00 0.00 0.00 80 1012.8
20260904075104 79 156 11.0 16.0 0.00 0.00 0.00 79 1012.7
20260904074604 79 157 9.0 14.0 0.00 0.00 0.00 79 1012.8
20260904074104 79 169 10.0 14.0 0.00 0.00 0.00 79 1012.8
20260904073604 80 164 8.0 14.0 0.00 0.00 0.00 79 1012.8
20260904073104 80 155 11.0 14.0 0.00 0.00 0.00 79 1012.9
20260904072603 80 155 9.0 16.0 0.00 0.00 0.00 79 1012.9
20260904070604 80 168 8.0 15.0 0.00 0.00 0.00 78 1013.1
20260904065103 80 158 10.0 15.0 0.00 0.00 0.00 78 1013.1
20260904064603 80 161 12.0 15.0 0.00 0.00 0.00 78 1013.2
20260904064104 80 157 8.0 13.0 0.00 0.00 0.00 78 1013.2
20260904063604 80 156 9.0 14.0 0.00 0.00 0.00 77 1013.2
20260904062603 81 155 9.0 15.0 0.00 0.00 0.00 77 1013.2
20260904061604 81 166 12.0 17.0 0.00 0.00 0.00 76 1013.2
20260904061103 81 153 10.0 16.0 0.00 0.00 0.00 76 1013.1
20260904060604 81 148 10.0 16.0 0.00 0.00 0.00 76 1013.1
20260904054604 82 162 10.0 16.0 0.00 0.00 0.00 75 1013.1
20260904053604 82 163 10.0 17.0 0.00 0.00 0.00 75 1013.0
20260904053104 82 171 11.0 17.0 0.00 0.00 0.00 75 1012.9
20260904052604 82 155 12.0 18.0 0.00 0.00 0.00 74 1012.9
20260904052103 82 167 11.0 18.0 0.00 0.00 0.00 74 1013.0
20260904050604 82 159 12.0 21.0 0.00 0.00 0.00 73 1012.9
20260904050104 83 148 10.0 15.0 0.00 0.00 0.00 73 1012.9
20260904045603 83 153 11.0 15.0 0.00 0.00 0.00 73 1012.9
20260904045103 83 164 11.0 18.0 0.00 0.00 0.00 73 1012.9
20260904044103 83 152 11.0 16.0 0.00 0.00 0.00 72 1013.0
20260904043603 83 156 11.0 16.0 0.00 0.00 0.00 72 1012.9
20260904043104 83 148 10.0 16.0 0.00 0.00 0.00 72 1013.0
20260904042603 83 178 7.0 15.0 0.00 0.00 0.00 72 1013.0
20260904042104 83 151 9.0 14.0 0.00 0.00 0.00 71 1013.1
20260904041603 83 155 10.0 14.0 0.00 0.00 0.00 71 1013.1
20260904041104 84 161 9.0 14.0 0.00 0.00 0.00 71 1013.1
20260904040103 84 162 10.0 18.0 0.00 0.00 0.00 70 1013.1
20260904034603 84 159 11.0 14.0 0.00 0.00 0.00 69 1013.2
20260904034104 85 152 10.0 15.0 0.00 0.00 0.00 69 1013.2
20260904033104 85 140 8.0 15.0 0.00 0.00 0.00 68 1013.2
20260904032604 85 140 10.0 21.0 0.00 0.00 0.00 67 1013.2
20260904032103 85 154 12.0 21.0 0.00 0.00 0.00 67 1013.1
20260904031604 85 161 9.0 17.0 0.00 0.00 0.00 67 1013.1
20260904031104 86 151 10.0 20.0 0.00 0.00 0.00 66 1013.1
20260904030604 86 161 13.0 20.0 0.00 0.00 0.00 66 1013.1
20260904025604 86 131 9.0 15.0 0.00 0.00 0.00 66 1013.0
20260904025104 86 161 9.0 17.0 0.00 0.00 0.00 66 1013.0
20260904024603 86 143 9.0 17.0 0.00 0.00 0.00 66 1012.8
20260904024104 86 142 12.0 17.0 0.00 0.00 0.00 65 1012.7
20260904023604 86 135 10.0 17.0 0.00 0.00 0.00 65 1012.6
20260904023104 87 143 10.0 17.0 0.00 0.00 0.00 65 1012.6
20260904022603 87 155 12.0 16.0 0.00 0.00 0.00 64 1012.6
20260904022103 87 157 10.0 16.0 0.00 0.00 0.00 64 1012.5
20260904021603 87 139 10.0 16.0 0.00 0.00 0.00 64 1012.4
20260904021104 87 152 10.0 15.0 0.00 0.00 0.00 64 1012.4
20260904020603 87 149 10.0 20.0 0.00 0.00 0.00 64 1012.3
20260904015603 87 158 13.0 18.0 0.00 0.00 0.00 63 1012.2
20260904015104 88 167 9.0 16.0 0.00 0.00 0.00 63 1012.2
20260904014604 88 157 7.0 14.0 0.00 0.00 0.00 63 1012.0
20260904014104 88 157 9.0 14.0 0.00 0.00 0.00 63 1011.9
20260904013604 88 155 7.0 14.0 0.00 0.00 0.00 62 1011.8
20260904012604 89 164 10.0 14.0 0.00 0.00 0.00 62 1011.7
20260904012103 89 141 9.0 14.0 0.00 0.00 0.00 61 1011.6
20260904011603 89 145 9.0 14.0 0.00 0.00 0.00 61 1011.5
20260904011103 89 148 9.0 14.0 0.00 0.00 0.00 60 1011.4
20260904010604 89 141 8.0 20.0 0.00 0.00 0.00 60 1011.3
20260904010104 89 147 12.0 20.0 0.00 0.00 0.00 60 1011.2
20260904005603 90 134 13.0 20.0 0.00 0.00 0.00 59 1011.2
20260904004603 90 136 12.0 18.0 0.00 0.00 0.00 58 1011.0
20260904004103 91 137 9.0 18.0 0.00 0.00 0.00 58 1011.0
20260904003603 91 144 12.0 20.0 0.00 0.00 0.00 57 1011.0
20260904003104 91 148 15.0 20.0 0.00 0.00 0.00 57 1010.9
20260904002604 91 150 11.0 18.0 0.00 0.00 0.00 57 1010.9
20260904002103 91 140 11.0 22.0 0.00 0.00 0.00 57 1010.9
20260904001603 91 131 13.0 22.0 0.00 0.00 0.00 56 1010.8
20260904001104 92 137 12.0 20.0 0.00 0.00 0.00 56 1010.8
20260904000604 92 133 14.0 20.0 0.00 0.00 0.00 56 1010.8
20260904000103 92 131 13.0 20.0 0.00 0.00 0.00 55 1010.8
20260903235603 92 134 12.0 20.0 0.00 0.00 0.00 55 1010.8
20260903235103 92 141 13.0 21.0 0.00 0.00 0.00 55 1010.8
20260903234603 93 134 13.0 21.0 0.00 0.00 0.00 54 1010.7
20260903234104 93 124 12.0 20.0 0.00 0.00 0.00 54 1010.8
20260903232103 94 136 12.0 18.0 0.00 0.00 0.00 52 1010.5
20260903231604 94 134 12.0 18.0 0.00 0.00 0.00 52 1010.6
20260903231104 94 167 9.0 16.0 0.00 0.00 0.00 52 1010.4
20260903230603 94 148 10.0 18.0 0.00 0.00 0.00 52 1010.5
20260903230103 95 121 12.0 18.0 0.00 0.00 0.00 52 1010.5
20260903225604 95 120 12.0 16.0 0.00 0.00 0.00 51 1010.4
20260903225104 95 120 7.0 13.0 0.00 0.00 0.00 51 1010.4
20260903224604 95 139 8.0 15.0 0.00 0.00 0.00 51 1010.5
20260903224104 95 151 9.0 15.0 0.00 0.00 0.00 51 1010.6
20260903223604 95 130 9.0 16.0 0.00 0.00 0.00 51 1010.5
20260903223103 95 159 11.0 16.0 0.00 0.00 0.00 51 1010.5
20260903222603 95 123 7.0 18.0 0.00 0.00 0.00 51 1010.5
20260903221603 95 141 10.0 14.0 0.00 0.00 0.00 51 1010.5
20260903221104 96 133 12.0 17.0 0.00 0.00 0.00 50 1010.6
20260903220603 96 121 9.0 17.0 0.00 0.00 0.00 50 1010.6
20260903220105 96 134 10.0 17.0 0.00 0.00 0.00 51 1010.6
20260903215606 96 140 8.0 16.0 0.00 0.00 0.00 51 1010.7
20260903215103 96 142 9.0 20.0 0.00 0.00 0.00 51 1010.8
20260903214603 96 125 12.0 20.0 0.00 0.00 0.00 51 1010.9
20260903214105 96 130 10.0 18.0 0.00 0.00 0.00 51 1010.9
20260903213605 96 118 13.0 18.0 0.00 0.00 0.00 50 1010.9
20260903212605 96 141 10.0 17.0 0.00 0.00 0.00 49 1010.9
20260903211605 97 136 8.0 17.0 0.00 0.00 0.00 50 1011.0
20260903211105 96 154 9.0 20.0 0.00 0.00 0.00 51 1011.0
20260903210605 96 106 9.0 20.0 0.00 0.00 0.00 49 1011.1
20260903210105 96 153 11.0 18.0 0.00 0.00 0.00 50 1011.0
20260903205105 96 157 11.0 18.0 0.00 0.00 0.00 50 1011.1
20260903204605 96 142 12.0 16.0 0.00 0.00 0.00 50 1011.2
20260903204105 96 124 9.0 20.0 0.00 0.00 0.00 50 1011.2
20260903203604 96 155 13.0 20.0 0.00 0.00 0.00 50 1011.3
20260903203105 97 149 10.0 16.0 0.00 0.00 0.00 50 1011.3
20260903202605 97 119 9.0 16.0 0.00 0.00 0.00 50 1011.4
20260903202105 97 108 9.0 16.0 0.00 0.00 0.00 49 1011.4
20260903200605 97 132 9.0 16.0 0.00 0.00 0.00 49 1011.6
20260903200105 97 125 10.0 14.0 0.00 0.00 0.00 49 1011.7
20260903195605 97 145 9.0 14.0 0.00 0.00 0.00 48 1011.7
20260903195105 98 132 9.0 16.0 0.00 0.00 0.00 48 1011.8
20260903194605 97 169 8.0 16.0 0.00 0.00 0.00 49 1011.9
20260903194105 97 147 6.0 14.0 0.00 0.00 0.00 49 1011.9
20260903193605 97 187 8.0 14.0 0.00 0.00 0.00 50 1011.9
20260903193105 96 152 10.0 14.0 0.00 0.00 0.00 49 1012.0
20260903192105 96 172 10.0 15.0 0.00 0.00 0.00 49 1012.1
20260903191105 96 117 7.0 15.0 0.00 0.00 0.00 51 1012.1
20260903190605 96 106 10.0 15.0 0.00 0.00 0.00 51 1012.2
20260903190105 96 101 10.0 15.0 0.00 0.00 0.00 50 1012.2
20260903185605 96 104 9.0 14.0 0.00 0.00 0.00 50 1012.3
20260903185105 96 133 7.0 14.0 0.00 0.00 0.00 51 1012.4
20260903183605 96 134 10.0 17.0 0.00 0.00 0.00 52 1012.7
20260903183106 96 139 7.0 13.0 0.00 0.00 0.00 52 1012.7
20260903182604 96 129 7.0 13.0 0.00 0.00 0.00 52 1012.7
20260903182105 95 124 7.0 14.0 0.00 0.00 0.00 52 1012.8
20260903181605 95 104 9.0 16.0 0.00 0.00 0.00 52 1012.9
20260903181105 95 136 8.0 16.0 0.00 0.00 0.00 53 1013.0
20260903180605 94 162 9.0 16.0 0.00 0.00 0.00 52 1012.9
20260903180105 94 157 8.0 13.0 0.00 0.00 0.00 53 1013.1
20260903175605 94 134 9.0 16.0 0.00 0.00 0.00 55 1013.1
20260903174605 93 168 9.0 20.0 0.00 0.00 0.00 55 1013.3
20260903174105 93 143 13.0 20.0 0.00 0.00 0.00 54 1013.4
20260903172604 92 141 7.0 15.0 0.00 0.00 0.00 57 1013.6
20260903171604 92 174 9.0 14.0 0.00 0.00 0.00 58 1013.6
20260903171105 91 146 9.0 15.0 0.00 0.00 0.00 59 1013.7
20260903170605 91 162 8.0 15.0 0.00 0.00 0.00 59 1013.7
20260903170104 91 155 8.0 14.0 0.00 0.00 0.00 60 1013.7
20260903165605 90 162 8.0 15.0 0.00 0.00 0.00 60 1013.8
20260903165105 90 144 9.0 17.0 0.00 0.00 0.00 60 1013.9
20260903164605 90 141 10.0 17.0 0.00 0.00 0.00 61 1013.9
20260903164105 89 166 6.0 13.0 0.00 0.00 0.00 62 1013.9
20260903163605 90 146 6.0 13.0 0.00 0.00 0.00 62 1013.9
20260903163105 89 174 6.0 12.0 0.00 0.00 0.00 63 1013.9
20260903162605 89 115 6.0 12.0 0.00 0.00 0.00 64 1014.0
20260903162105 88 145 7.0 13.0 0.00 0.00 0.00 65 1014.0
20260903161605 87 123 7.0 13.0 0.00 0.00 0.00 66 1014.0
20260903161105 87 158 10.0 15.0 0.00 0.00 0.00 66 1014.0
20260903160105 87 138 8.0 16.0 0.00 0.00 0.00 66 1013.9
20260903155604 87 173 10.0 16.0 0.00 0.00 0.00 68 1013.9
20260903155105 86 163 9.0 14.0 0.00 0.00 0.00 68 1014.0
20260903154605 86 160 10.0 14.0 0.00 0.00 0.00 69 1014.1
20260903154104 86 163 7.0 13.0 0.00 0.00 0.00 69 1014.1
20260903153605 85 143 7.0 14.0 0.00 0.00 0.00 70 1014.2
20260903153104 85 144 10.0 16.0 0.00 0.00 0.00 70 1014.2
20260903152605 85 147 10.0 16.0 0.00 0.00 0.00 70 1014.2
20260903152105 84 159 8.0 14.0 0.00 0.00 0.00 71 1014.2
20260903151605 84 141 8.0 14.0 0.00 0.00 0.00 72 1014.2
20260903150105 83 159 9.0 17.0 0.00 0.00 0.00 73 1014.2
20260903145605 83 164 10.0 17.0 0.00 0.00 0.00 74 1014.3
20260903145105 82 137 9.0 16.0 0.00 0.00 0.00 75 1014.4
20260903144605 82 153 10.0 16.0 0.00 0.00 0.00 75 1014.5